| time (UTC) | temp F | wind direction | speed MPH | gust MPH | rain 1hr in | rain 24hr in | rain mn in | humidity % | barometer mb |
| 20260508214523 | 78 | 69 | 3.0 | 0.0 | 0.00 | 0.00 | 0.00 | 13 | 1007.4 |
| 20260508213011 | 78 | 80 | 2.0 | 0.0 | 0.00 | 0.00 | 0.00 | 12 | 1007.7 |
| 20260508211512 | 77 | 134 | 4.0 | 0.0 | 0.00 | 0.00 | 0.00 | 14 | 1007.9 |
| 20260508210008 | 76 | 24 | 3.0 | 0.0 | 0.00 | 0.00 | 0.00 | 14 | 1008.1 |
| 20260508204503 | 75 | 59 | 4.0 | 0.0 | 0.00 | 0.00 | 0.00 | 14 | 1008.4 |
| 20260508203002 | 75 | 39 | 3.0 | 0.0 | 0.00 | 0.00 | 0.00 | 13 | 1008.4 |
| 20260508201601 | 75 | 5 | 3.0 | 0.0 | 0.00 | 0.00 | 0.00 | 12 | 1008.6 |
| 20260508200059 | 74 | 23 | 3.0 | 0.0 | 0.00 | 0.00 | 0.00 | 14 | 1008.6 |
| 20260508194607 | 74 | 34 | 3.0 | 0.0 | 0.00 | 0.00 | 0.00 | 13 | 1008.8 |
| 20260508193118 | 73 | 44 | 2.0 | 0.0 | 0.00 | 0.00 | 0.00 | 13 | 1008.7 |
| 20260508191604 | 73 | 31 | 2.0 | 0.0 | 0.00 | 0.00 | 0.00 | 14 | 1009.0 |
| 20260508190110 | 72 | 49 | 4.0 | 0.0 | 0.00 | 0.00 | 0.00 | 16 | 1009.3 |
| 20260508184550 | 72 | 50 | 2.0 | 0.0 | 0.00 | 0.00 | 0.00 | 20 | 1009.6 |
| 20260508183046 | 70 | 40 | 2.0 | 0.0 | 0.00 | 0.00 | 0.00 | 17 | 1009.8 |
| 20260508181547 | 69 | 12 | 3.0 | 0.0 | 0.00 | 0.00 | 0.00 | 21 | 1009.9 |
| 20260508180040 | 68 | 25 | 3.0 | 0.0 | 0.00 | 0.00 | 0.00 | 18 | 1010.0 |
| 20260508174542 | 68 | 80 | 2.0 | 0.0 | 0.00 | 0.00 | 0.00 | 22 | 1009.9 |
| 20260508173035 | 66 | 42 | 3.0 | 0.0 | 0.00 | 0.00 | 0.00 | 21 | 1010.1 |
| 20260508171540 | 65 | 13 | 3.0 | 0.0 | 0.00 | 0.00 | 0.00 | 25 | 1010.1 |
| 20260508170029 | 64 | 46 | 2.0 | 0.0 | 0.00 | 0.00 | 0.00 | 27 | 1010.1 |
| 20260508164527 | 64 | 22 | 2.0 | 0.0 | 0.00 | 0.00 | 0.00 | 26 | 1010.0 |
| 20260508163023 | 62 | 19 | 3.0 | 0.0 | 0.00 | 0.00 | 0.00 | 32 | 1010.1 |
| 20260508161530 | 60 | 5 | 2.0 | 0.0 | 0.00 | 0.00 | 0.00 | 37 | 1010.2 |
| 20260508160017 | 60 | 59 | 2.0 | 0.0 | 0.00 | 0.00 | 0.00 | 37 | 1010.3 |
| 20260508154517 | 59 | 59 | 2.0 | 0.0 | 0.00 | 0.00 | 0.00 | 38 | 1010.3 |
| 20260508153020 | 59 | 46 | 2.0 | 0.0 | 0.00 | 0.00 | 0.00 | 39 | 1010.5 |
| 20260508151511 | 58 | 266 | 1.0 | 0.0 | 0.00 | 0.00 | 0.00 | 40 | 1010.3 |
| 20260508150008 | 57 | 266 | 1.0 | 0.0 | 0.00 | 0.00 | 0.00 | 40 | 1010.3 |
| 20260508144509 | 57 | 265 | 2.0 | 0.0 | 0.00 | 0.00 | 0.00 | 38 | 1010.2 |
| 20260508143003 | 56 | 264 | 1.0 | 0.0 | 0.00 | 0.00 | 0.00 | 38 | 1010.3 |
| 20260508141606 | 55 | 264 | 0.0 | 0.0 | 0.00 | 0.00 | 0.00 | 39 | 1010.2 |
| 20260508140117 | 52 | 264 | 1.0 | 0.0 | 0.00 | 0.00 | 0.00 | 38 | 1010.0 |
| 20260508134556 | 50 | 264 | 3.0 | 0.0 | 0.00 | 0.00 | 0.00 | 37 | 1009.9 |
| 20260508133101 | 48 | 258 | 4.0 | 0.0 | 0.00 | 0.00 | 0.00 | 34 | 1009.8 |
| 20260508131554 | 46 | 254 | 4.0 | 0.0 | 0.00 | 0.00 | 0.00 | 35 | 1009.7 |
| 20260508130052 | 45 | 253 | 4.0 | 0.0 | 0.00 | 0.00 | 0.00 | 39 | 1009.5 |
| 20260508124551 | 45 | 254 | 3.0 | 0.0 | 0.00 | 0.00 | 0.00 | 46 | 1009.5 |
| 20260508123050 | 45 | 246 | 4.0 | 0.0 | 0.00 | 0.00 | 0.00 | 40 | 1009.3 |
| 20260508121547 | 46 | 263 | 4.0 | 0.0 | 0.00 | 0.00 | 0.00 | 39 | 1009.2 |
| 20260508120045 | 46 | 259 | 4.0 | 0.0 | 0.00 | 0.00 | 0.00 | 38 | 1009.1 |
| 20260508114539 | 47 | 266 | 3.0 | 0.0 | 0.00 | 0.00 | 0.00 | 34 | 1009.0 |
| 20260508113039 | 48 | 269 | 4.0 | 0.0 | 0.00 | 0.00 | 0.00 | 32 | 1009.0 |
| 20260508111538 | 48 | 274 | 5.0 | 0.0 | 0.00 | 0.00 | 0.00 | 32 | 1008.9 |
| 20260508110035 | 49 | 267 | 5.0 | 0.0 | 0.00 | 0.00 | 0.00 | 31 | 1008.8 |
| 20260508104531 | 49 | 252 | 4.0 | 0.0 | 0.00 | 0.00 | 0.00 | 30 | 1008.9 |
| 20260508103040 | 49 | 252 | 5.0 | 0.0 | 0.00 | 0.00 | 0.00 | 30 | 1008.8 |
| 20260508101526 | 49 | 245 | 5.0 | 0.0 | 0.00 | 0.00 | 0.00 | 35 | 1008.8 |
| 20260508100028 | 49 | 248 | 5.0 | 0.0 | 0.00 | 0.00 | 0.00 | 32 | 1008.7 |
| 20260508094522 | 50 | 252 | 4.0 | 0.0 | 0.00 | 0.00 | 0.00 | 31 | 1008.8 |
| 20260508093026 | 50 | 260 | 4.0 | 0.0 | 0.00 | 0.00 | 0.00 | 29 | 1008.7 |
| 20260508091519 | 50 | 256 | 4.0 | 0.0 | 0.00 | 0.00 | 0.00 | 29 | 1008.6 |
| 20260508090017 | 51 | 240 | 2.0 | 0.0 | 0.00 | 0.00 | 0.00 | 28 | 1008.4 |
| 20260508084514 | 52 | 205 | 4.0 | 0.0 | 0.00 | 0.00 | 0.00 | 29 | 1008.5 |
| 20260508083013 | 53 | 249 | 6.0 | 0.0 | 0.00 | 0.00 | 0.00 | 26 | 1008.4 |
| 20260508081514 | 54 | 261 | 5.0 | 0.0 | 0.00 | 0.00 | 0.00 | 25 | 1008.5 |
| 20260508080013 | 53 | 257 | 5.0 | 0.0 | 0.00 | 0.00 | 0.00 | 25 | 1008.6 |
| 20260508074507 | 52 | 260 | 4.0 | 0.0 | 0.00 | 0.00 | 0.00 | 32 | 1008.6 |
| 20260508073006 | 52 | 263 | 3.0 | 0.0 | 0.00 | 0.00 | 0.00 | 34 | 1008.5 |
| 20260508071505 | 52 | 263 | 3.0 | 0.0 | 0.00 | 0.00 | 0.00 | 34 | 1008.5 |
| 20260508070100 | 53 | 263 | 3.0 | 0.0 | 0.00 | 0.00 | 0.00 | 34 | 1008.4 |
| 20260508064600 | 55 | 261 | 3.0 | 0.0 | 0.00 | 0.00 | 0.00 | 30 | 1008.5 |
| 20260508063101 | 56 | 261 | 4.0 | 0.0 | 0.00 | 0.00 | 0.00 | 32 | 1008.5 |
| 20260508061606 | 56 | 245 | 4.0 | 0.0 | 0.00 | 0.00 | 0.00 | 35 | 1008.4 |
| 20260508060121 | 58 | 257 | 5.0 | 0.0 | 0.00 | 0.00 | 0.00 | 43 | 1008.3 |
| 20260508054641 | 58 | 265 | 6.0 | 0.0 | 0.00 | 0.00 | 0.00 | 44 | 1008.2 |
| 20260508053058 | 58 | 252 | 6.0 | 0.0 | 0.00 | 0.00 | 0.00 | 42 | 1008.2 |
| 20260508051558 | 60 | 184 | 3.0 | 0.0 | 0.00 | 0.00 | 0.00 | 37 | 1008.2 |
| 20260508050057 | 62 | 180 | 5.0 | 0.0 | 0.00 | 0.00 | 0.00 | 30 | 1008.2 |
| 20260508044557 | 64 | 264 | 5.0 | 0.0 | 0.00 | 0.00 | 0.00 | 23 | 1008.2 |
| 20260508043059 | 64 | 269 | 7.0 | 0.0 | 0.00 | 0.00 | 0.00 | 28 | 1008.0 |
| 20260508041555 | 63 | 244 | 7.0 | 0.0 | 0.00 | 0.00 | 0.00 | 29 | 1007.9 |
| 20260508040055 | 62 | 231 | 8.0 | 0.0 | 0.00 | 0.00 | 0.00 | 34 | 1007.8 |
| 20260508034554 | 62 | 219 | 5.0 | 0.0 | 0.00 | 0.00 | 0.00 | 33 | 1007.5 |
| 20260508033054 | 63 | 294 | 3.0 | 0.0 | 0.00 | 0.00 | 0.00 | 30 | 1007.6 |
| 20260508031559 | 64 | 319 | 3.0 | 0.0 | 0.00 | 0.00 | 0.00 | 30 | 1007.1 |
| 20260508030059 | 65 | 305 | 2.0 | 0.0 | 0.00 | 0.00 | 0.00 | 29 | 1007.0 |
| 20260508024604 | 66 | 285 | 3.0 | 0.0 | 0.00 | 0.00 | 0.00 | 28 | 1006.8 |
| 20260508023052 | 68 | 267 | 4.0 | 0.0 | 0.00 | 0.00 | 0.00 | 26 | 1006.7 |
| 20260508021552 | 70 | 251 | 6.0 | 0.0 | 0.00 | 0.00 | 0.00 | 23 | 1006.7 |
| 20260508014553 | 72 | 307 | 7.0 | 0.0 | 0.00 | 0.00 | 0.00 | 22 | 1006.4 |
| 20260508013050 | 73 | 323 | 8.0 | 0.0 | 0.00 | 0.00 | 0.00 | 21 | 1006.2 |
| 20260508011552 | 74 | 317 | 8.0 | 0.0 | 0.00 | 0.00 | 0.00 | 19 | 1006.1 |
| 20260508010052 | 75 | 275 | 7.0 | 0.0 | 0.00 | 0.00 | 0.00 | 20 | 1006.1 |
| 20260508004549 | 75 | 351 | 7.0 | 0.0 | 0.00 | 0.00 | 0.00 | 18 | 1006.1 |
| 20260508003050 | 76 | 294 | 8.0 | 0.0 | 0.00 | 0.00 | 0.00 | 17 | 1006.0 |
| 20260508001548 | 76 | 360 | 6.0 | 0.0 | 0.00 | 0.00 | 0.00 | 17 | 1005.9 |
| 20260508000047 | 77 | 307 | 8.0 | 0.0 | 0.00 | 0.00 | 0.00 | 18 | 1005.8 |
| 20260507234547 | 78 | 323 | 8.0 | 0.0 | 0.00 | 0.00 | 0.00 | 16 | 1005.8 |
| 20260507233046 | 78 | 336 | 3.0 | 0.0 | 0.00 | 0.00 | 0.00 | 15 | 1005.7 |
| 20260507231547 | 78 | 339 | 5.0 | 0.0 | 0.00 | 0.00 | 0.00 | 16 | 1005.6 |
| 20260507230044 | 78 | 242 | 7.0 | 0.0 | 0.00 | 0.00 | 0.00 | 21 | 1005.6 |
| 20260507224545 | 79 | 336 | 4.0 | 0.0 | 0.00 | 0.00 | 0.00 | 17 | 1005.8 |
| 20260507223041 | 78 | 309 | 6.0 | 0.0 | 0.00 | 0.00 | 0.00 | 16 | 1005.9 |
| 20260507221540 | 79 | 168 | 6.0 | 0.0 | 0.00 | 0.00 | 0.00 | 21 | 1006.0 |
| 20260507220039 | 79 | 271 | 6.0 | 0.0 | 0.00 | 0.00 | 0.00 | 15 | 1006.3 |
| 20260507214544 | 78 | 337 | 8.0 | 0.0 | 0.00 | 0.00 | 0.00 | 16 | 1006.4 |